Date,TemperatureHighF,TemperatureAvgF,TemperatureLowF,DewpointHighF,DewpointAvgF,DewpointLowF,HumidityHigh,HumidityAvg,HumidityLow,PressureMaxIn,PressureMinIn,WindSpeedMaxMPH,WindSpeedAvgMPH,GustSpeedMaxMPH,PrecipitationSumIn
2013-2-1,73.9,60.3,50.2,53.2,44.1,32.5,68,55,45,30.05,29.93,9,3,17,0.00
2013-2-2,83.3,62.3,51.8,51.8,44.0,32.3,95,54,26,30.03,29.88,7,1,11,0.00
2013-2-3,77.0,61.2,50.0,53.3,43.7,17.7,99,62,12,29.94,29.82,8,1,12,0.00
2013-2-4,80.1,62.0,44.8,52.7,43.6,-6.5,91,60,10,29.91,29.78,8,1,14,0.00
2013-2-5,88.0,67.4,48.9,64.3,53.3,41.7,99,68,21,29.85,29.75,6,1,11,0.00
2013-2-6,89.8,70.3,56.8,70.7,60.9,56.6,99,75,40,29.87,29.77,5,1,10,0.00
2013-2-7,90.1,73.3,59.0,70.7,62.3,10.7,99,72,10,29.84,29.68,8,2,12,0.00
2013-2-8,87.1,72.8,63.0,71.0,64.6,54.9,99,78,39,29.79,29.65,6,2,53,0.00
2013-2-9,81.9,70.6,61.5,67.7,62.1,58.9,99,77,48,29.93,29.77,11,2,20,0.00
2013-2-10,79.5,72.0,65.8,65.2,60.8,57.5,91,69,49,30.02,29.90,8,2,16,0.00
2013-2-11,87.4,72.3,60.3,70.2,61.9,58.5,97,73,42,29.97,29.86,9,2,16,0.00
2013-2-12,93.4,74.3,59.4,73.6,64.2,57.3,99,76,32,29.88,29.71,8,2,16,0.00
2013-2-13,92.7,76.9,64.4,74.7,67.7,63.7,99,77,40,29.76,29.62,12,3,20,0.00
2013-2-14,81.0,68.0,61.7,76.2,67.1,61.4,99,97,78,29.77,29.62,11,2,18,1.41
2013-2-15,74.8,65.8,62.2,69.2,64.7,62.0,99,96,78,29.79,29.68,5,1,10,0.09
2013-2-16,74.3,62.3,1.2,64.7,55.4,-42.3,99,82,10,29.85,29.63,26,2,26,0.01
2013-2-17,60.4,50.9,42.4,40.4,23.6,6.6,62,38,12,30.09,29.84,10,4,20,0.00
2013-2-18,75.6,59.1,44.8,54.7,40.2,23.8,73,51,32,30.10,29.97,8,2,20,0.00
2013-2-19,86.0,69.4,-21.3,67.5,59.7,-60.3,99,75,10,29.98,29.83,10,2,17,0.19
2013-2-20,86.5,71.2,60.6,68.8,63.6,58.5,99,80,42,29.87,29.75,8,1,11,0.01
2013-2-21,89.1,72.6,59.9,71.9,65.2,59.6,99,80,43,29.85,29.75,8,2,12,0.00
2013-2-22,88.2,75.5,50.9,75.1,68.3,47.8,99,81,54,29.85,29.76,10,4,17,0.00
2013-2-23,92.1,78.1,68.9,73.5,70.2,65.0,99,79,44,29.79,29.65,11,4,17,0.00
2013-2-24,95.2,79.6,70.3,75.9,69.4,60.0,99,76,32,29.75,29.64,8,2,12,0.00
2013-2-25,90.0,76.0,66.6,77.8,70.9,65.0,99,86,47,29.66,29.55,9,2,16,0.34
2013-2-26,91.4,79.0,70.7,75.6,70.9,65.7,99,79,45,29.64,29.53,14,4,25,0.00
2013-2-27,77.0,69.8,62.8,74.3,64.7,59.5,99,85,59,29.71,29.61,7,2,13,0.21
2013-2-28,78.8,63.5,58.5,64.0,54.0,37.6,99,74,24,29.77,29.65,6,1,10,0.00